BEL9SE EBBR-LSGG

Flight info

Callsign BEL9SE
Flight time N/A
Altitude 35000
Route ROUSY DCT GTQ DCT POGOL DCT LASAT DCT MOROK Z24 AKITO
Aircraft A319/M-SDE3FGHIRWY/LB1

Departure

Time N/A
Airport Brussels Airport (EBBR)

Arrival

Time 2026-05-06 15:56
Airport Geneva International Airport (LSGG)
Time Latitude Longitude Altitude Speed Heading
2026-05-06 15:14 50.13157 5.83592 31236 ft 435 kts 162°
2026-05-06 15:14 50.10276 5.85073 31527 ft 438 kts 162°
2026-05-06 15:14 50.07389 5.86563 31932 ft 437 kts 162°
2026-05-06 15:15 50.04505 5.88050 32416 ft 436 kts 163°
2026-05-06 15:15 50.01631 5.89530 32871 ft 435 kts 163°
2026-05-06 15:15 49.98761 5.90999 33309 ft 434 kts 163°
2026-05-06 15:15 49.95929 5.92446 33741 ft 433 kts 163°
2026-05-06 15:16 49.93073 5.93904 34155 ft 432 kts 163°
2026-05-06 15:16 49.90221 5.95357 34517 ft 431 kts 163°
2026-05-06 15:16 49.87368 5.96807 34779 ft 432 kts 163°
2026-05-06 15:17 49.81723 5.99665 34843 ft 421 kts 164°
2026-05-06 15:17 49.76176 6.02424 39788 ft 417 kts 166°
2026-05-06 15:18 49.70610 6.05129 39618 ft 420 kts 164°
2026-05-06 15:18 49.67866 6.06545 39112 ft 421 kts 164°
2026-05-06 15:18 49.65083 6.07998 38511 ft 424 kts 164°
2026-05-06 15:18 49.62272 6.09455 37647 ft 429 kts 164°
2026-05-06 15:19 49.59423 6.10910 36710 ft 435 kts 164°
2026-05-06 15:19 49.56529 6.12369 35825 ft 439 kts 164°
2026-05-06 15:19 49.53616 6.13820 35153 ft 439 kts 163°
2026-05-06 15:19 49.50738 6.15250 34918 ft 428 kts 163°
2026-05-06 15:20 49.47938 6.16644 34811 ft 419 kts 163°
2026-05-06 15:20 49.42418 6.19399 34839 ft 416 kts 163°
2026-05-06 15:21 49.36907 6.22140 34842 ft 416 kts 163°
2026-05-06 15:21 49.31439 6.24839 34838 ft 415 kts 164°
2026-05-06 15:22 49.25940 6.27549 34843 ft 415 kts 163°
2026-05-06 15:22 49.20443 6.30273 34836 ft 415 kts 163°
2026-05-06 15:23 49.14955 6.32988 34833 ft 415 kts 163°
2026-05-06 15:23 49.09458 6.35684 34825 ft 415 kts 163°
2026-05-06 15:24 49.03966 6.38374 34828 ft 415 kts 163°
2026-05-06 15:24 48.98465 6.41065 34827 ft 415 kts 163°
2026-05-06 15:25 48.92969 6.43750 34827 ft 415 kts 163°
2026-05-06 15:25 48.87504 6.46407 34820 ft 415 kts 164°
2026-05-06 15:26 48.82000 6.49076 34822 ft 415 kts 164°
2026-05-06 15:26 48.76491 6.51745 34823 ft 415 kts 164°
2026-05-06 15:27 48.70982 6.54418 34812 ft 415 kts 164°
2026-05-06 15:27 48.65473 6.57076 34822 ft 415 kts 164°
2026-05-06 15:28 48.59972 6.59724 34828 ft 415 kts 164°
2026-05-06 15:28 48.54465 6.62374 34726 ft 416 kts 164°
2026-05-06 15:28 48.51707 6.63696 34487 ft 415 kts 164°
2026-05-06 15:29 48.48985 6.64998 34251 ft 415 kts 164°
2026-05-06 15:29 48.46233 6.66314 34026 ft 415 kts 164°
2026-05-06 15:29 48.43482 6.67633 33785 ft 414 kts 164°
2026-05-06 15:29 48.40707 6.68779 33441 ft 413 kts 171°
2026-05-06 15:30 48.37873 6.69241 32982 ft 408 kts 180°
2026-05-06 15:30 48.35056 6.69130 32825 ft 404 kts 182°
2026-05-06 15:30 48.32244 6.69004 32861 ft 405 kts 182°
2026-05-06 15:31 48.26607 6.68801 32860 ft 406 kts 182°
2026-05-06 15:31 48.20966 6.68611 32862 ft 405 kts 182°
2026-05-06 15:32 48.12504 6.68293 32876 ft 405 kts 182°
2026-05-06 15:32 48.07815 6.68106 32871 ft 405 kts 182°
2026-05-06 15:33 48.02173 6.67886 32873 ft 406 kts 182°
2026-05-06 15:33 47.96520 6.67673 32876 ft 406 kts 182°
2026-05-06 15:34 47.90867 6.67467 32878 ft 406 kts 182°
2026-05-06 15:34 47.85214 6.67261 32884 ft 406 kts 182°
2026-05-06 15:35 47.79550 6.67036 32883 ft 406 kts 182°
2026-05-06 15:35 47.73910 6.66813 32169 ft 412 kts 182°
2026-05-06 15:36 47.71043 6.66711 31393 ft 414 kts 181°
2026-05-06 15:36 47.68160 6.66611 30645 ft 415 kts 181°
2026-05-06 15:36 47.65274 6.66507 29908 ft 416 kts 180°
2026-05-06 15:36 47.62376 6.66400 29035 ft 416 kts 180°
2026-05-06 15:37 47.59499 6.66291 28561 ft 409 kts 181°
2026-05-06 15:37 47.56677 6.66186 28047 ft 402 kts 181°
2026-05-06 15:37 47.53875 6.66081 27443 ft 399 kts 181°
2026-05-06 15:37 47.51129 6.65980 27014 ft 391 kts 181°
2026-05-06 15:38 47.48429 6.65881 26576 ft 385 kts 181°
2026-05-06 15:38 47.45770 6.65783 26143 ft 380 kts 181°
2026-05-06 15:38 47.43146 6.65683 25746 ft 374 kts 180°
2026-05-06 15:38 47.40554 6.65585 25304 ft 371 kts 181°
2026-05-06 15:39 47.37987 6.65488 24852 ft 369 kts 181°
2026-05-06 15:39 47.35424 6.65396 24382 ft 367 kts 182°
2026-05-06 15:39 47.32909 6.65307 23927 ft 365 kts 182°
2026-05-06 15:39 47.30377 6.65216 23442 ft 363 kts 182°
2026-05-06 15:40 47.27856 6.65124 22917 ft 360 kts 182°
2026-05-06 15:40 47.25363 6.65033 22444 ft 357 kts 182°
2026-05-06 15:40 47.22890 6.64944 21972 ft 353 kts 182°
2026-05-06 15:40 47.20457 6.64654 21502 ft 349 kts 191°
2026-05-06 15:41 47.18082 6.63999 21054 ft 346 kts 192°
2026-05-06 15:41 47.15723 6.63347 20597 ft 342 kts 191°
2026-05-06 15:41 47.13400 6.62709 20154 ft 339 kts 192°
2026-05-06 15:41 47.11094 6.62077 19715 ft 335 kts 192°
2026-05-06 15:42 47.08837 6.61462 19274 ft 332 kts 192°
2026-05-06 15:42 47.06572 6.60850 18844 ft 330 kts 192°
2026-05-06 15:42 47.04324 6.60245 18417 ft 328 kts 193°
2026-05-06 15:42 47.02083 6.59640 17963 ft 326 kts 192°
2026-05-06 15:43 46.99865 6.59039 17543 ft 322 kts 193°
2026-05-06 15:43 46.97675 6.58446 17123 ft 319 kts 192°
2026-05-06 15:43 46.95503 6.57856 16718 ft 316 kts 193°
2026-05-06 15:43 46.93342 6.57270 16322 ft 314 kts 193°
2026-05-06 15:44 46.91198 6.56690 15925 ft 313 kts 193°
2026-05-06 15:44 46.89068 6.56114 15541 ft 311 kts 193°
2026-05-06 15:44 46.86945 6.55539 15148 ft 310 kts 193°
2026-05-06 15:44 46.84830 6.54967 14760 ft 308 kts 193°
2026-05-06 15:45 46.82727 6.54402 14367 ft 307 kts 193°
2026-05-06 15:45 46.80654 6.53845 13976 ft 306 kts 193°
2026-05-06 15:45 46.78567 6.53282 13584 ft 305 kts 193°
2026-05-06 15:45 46.76481 6.52719 13168 ft 303 kts 193°
2026-05-06 15:46 46.74416 6.52166 12771 ft 301 kts 193°
2026-05-06 15:46 46.72367 6.51617 12380 ft 298 kts 193°
2026-05-06 15:46 46.70333 6.51070 11989 ft 297 kts 193°
2026-05-06 15:46 46.68310 6.50528 11591 ft 295 kts 193°
2026-05-06 15:47 46.66293 6.49988 11200 ft 293 kts 193°
2026-05-06 15:47 46.64287 6.49453 10797 ft 293 kts 193°
2026-05-06 15:47 46.62273 6.48916 10393 ft 295 kts 193°
2026-05-06 15:47 46.60252 6.48377 10045 ft 294 kts 193°
2026-05-06 15:48 46.58289 6.47856 9812 ft 280 kts 193°
2026-05-06 15:48 46.56414 6.47359 9174 ft 277 kts 193°
2026-05-06 15:48 46.54531 6.46854 8579 ft 273 kts 193°
2026-05-06 15:48 46.52666 6.46353 8065 ft 272 kts 193°
2026-05-06 15:49 46.50833 6.45861 7875 ft 258 kts 193°
2026-05-06 15:49 46.49136 6.45412 7759 ft 239 kts 193°
2026-05-06 15:49 46.47576 6.44859 7664 ft 228 kts 204°
2026-05-06 15:49 46.46193 6.43737 7452 ft 230 kts 219°
2026-05-06 15:50 46.45046 6.42138 7102 ft 228 kts 227°
2026-05-06 15:50 46.43942 6.40503 6768 ft 226 kts 227°
2026-05-06 15:50 46.42816 6.38920 6433 ft 225 kts 226°
2026-05-06 15:50 46.41704 6.37314 6122 ft 225 kts 227°
2026-05-06 15:51 46.40614 6.35704 5802 ft 222 kts 226°
2026-05-06 15:51 46.39540 6.34111 5504 ft 220 kts 226°
2026-05-06 15:51 46.38481 6.32542 5203 ft 217 kts 226°
2026-05-06 15:51 46.37431 6.30988 4915 ft 214 kts 225°
2026-05-06 15:52 46.36410 6.29478 4624 ft 211 kts 225°
2026-05-06 15:52 46.35386 6.27963 4339 ft 209 kts 225°
2026-05-06 15:52 46.34369 6.26460 4053 ft 208 kts 226°
2026-05-06 15:52 46.33357 6.24964 3778 ft 207 kts 226°
2026-05-06 15:53 46.32354 6.23485 3494 ft 203 kts 226°
2026-05-06 15:53 46.31401 6.22078 3242 ft 190 kts 226°
2026-05-06 15:53 46.30509 6.20763 2980 ft 175 kts 225°
2026-05-06 15:53 46.29725 6.19607 2747 ft 148 kts 224°
2026-05-06 15:54 46.29044 6.18603 2533 ft 131 kts 224°
2026-05-06 15:54 46.28417 6.17681 2361 ft 131 kts 225°
2026-05-06 15:54 46.27792 6.16758 2156 ft 129 kts 225°
2026-05-06 15:54 46.27164 6.15830 2034 ft 126 kts 224°
2026-05-06 15:55 46.26556 6.14933 1856 ft 126 kts 225°
2026-05-06 15:55 46.25939 6.14028 1686 ft 126 kts 225°
2026-05-06 15:55 46.25321 6.13121 1513 ft 125 kts 225°
2026-05-06 15:55 46.24715 6.12232 1379 ft 118 kts 225°
2026-05-06 15:56 46.24228 6.11514 1374 ft 78 kts 226°
2026-05-06 15:56 46.23989 6.11165 1377 ft 23 kts 225°
2026-05-06 15:56 46.23876 6.11074 1379 ft 15 kts 187°
2026-05-06 15:56 46.23792 6.11084 1380 ft 8 kts 175°
2026-05-06 15:57 46.23767 6.11087 1382 ft 0 kts 175°